Weather History for Sallisaw, OK

Change the Weather History Date:

Tuesday, December 18, 2012

  Actual Average Record
Temperature  
Mean Temperature 48 °F -  
Max Temperature 64 °F 51 °F 136 °F (2004)
Min Temperature 33 °F 29 °F 7 °F (1964)
Degree Days  
Heating Degree Days 16    
Moisture  
Dew Point 34 °F    
Average Humidity 66    
Maximum Humidity 100    
Minimum Humidity 30    
Precipitation  
Precipitation 0.00 in - - ()
Sea Level Pressure  
Sea Level Pressure 29.80 in    
Wind  
Wind Speed 5 mph (ENE)    
Max Wind Speed 9 mph    
Max Gust Speed -    
Visibility 9 miles    
Events      
Averages and records for this station are not official NWS values.
T = Trace of Precipitation, MM = Missing Value Source: NWS Daily Summary

Daily Weather History Graph

Daily Weather History Graph

Search for Another Location

Airport:

Trip Planner

Search our weather history database for the weather conditions in past years. The results will help you decide how hot, cold, wet, or windy it might be!

Date:

Astronomy

Dec. 18, 2012 Rise Set
Actual Time 7:23 AM CST 5:09 PM CST
Civil Twilight 6:54 AM CST 5:37 PM CST
Nautical Twilight 6:22 AM CST 6:09 PM CST
Astronomical Twilight 5:51 AM CST 6:40 PM CST
Moon 11:14 AM CST (12/18) 11:23 PM CST (12/18)
Length of Visible Light 10h 42m
Length of Day
9h 46m
Waxing Crescent, 35% of the Moon is Illuminated
Dec 18
Waxing Crescent
Dec 19
First Quarter
Dec 28
Full
Jan 4
Last Quarter
Jan 11
New

Hourly Weather History & Observations

Time (CST) Temp. Windchill Dew Point Humidity Pressure Visibility Wind Dir Wind Speed Gust Speed Precip Events Conditions
12:15 AM 35.6 °F 31.7 °F 32.0 °F 87% 29.84 in 10.0 mi ENE 4.6 mph - N/A   Clear
12:35 AM 35.6 °F 30.7 °F 32.0 °F 87% 29.83 in 10.0 mi NE 5.8 mph - N/A   Clear
12:55 AM 35.6 °F 30.7 °F 32.0 °F 87% 29.82 in 7.0 mi ENE 5.8 mph - N/A   Clear
1:15 AM 35.6 °F 30.7 °F 32.0 °F 87% 29.82 in 7.0 mi ENE 5.8 mph - N/A   Clear
1:35 AM 35.6 °F 30.7 °F 32.0 °F 87% 29.82 in 7.0 mi ENE 5.8 mph - N/A   Clear
1:55 AM 35.6 °F 29.9 °F 32.0 °F 87% 29.82 in 7.0 mi NE 6.9 mph - N/A   Clear
2:15 AM 35.6 °F 29.9 °F 32.0 °F 87% 29.82 in 7.0 mi NE 6.9 mph - N/A   Clear
2:35 AM 35.6 °F 29.9 °F 32.0 °F 87% 29.81 in 7.0 mi ENE 6.9 mph - N/A   Clear
2:55 AM 35.6 °F 29.2 °F 32.0 °F 87% 29.82 in 7.0 mi ENE 8.1 mph - N/A   Clear
3:15 AM 35.6 °F 30.7 °F 32.0 °F 87% 29.82 in 7.0 mi NE 5.8 mph - N/A   Clear
3:35 AM 33.8 °F 28.6 °F 32.0 °F 93% 29.82 in 7.0 mi ENE 5.8 mph - N/A   Clear
3:55 AM 33.8 °F 28.6 °F 32.0 °F 93% 29.81 in 7.0 mi ENE 5.8 mph - N/A   Clear
4:15 AM 33.8 °F 28.6 °F 32.0 °F 93% 29.81 in 7.0 mi ENE 5.8 mph - N/A   Clear
4:35 AM 33.8 °F 28.6 °F 32.0 °F 93% 29.81 in 7.0 mi ENE 5.8 mph - N/A   Clear
5:15 AM 33.8 °F 27.7 °F 32.0 °F 93% 29.81 in 7.0 mi ENE 6.9 mph - N/A   Clear
5:35 AM 33.8 °F 29.6 °F 32.0 °F 93% 29.81 in 7.0 mi ENE 4.6 mph - N/A   Clear
5:55 AM 33.8 °F 27.0 °F 32.0 °F 93% 29.80 in 7.0 mi ENE 8.1 mph - N/A   Clear
6:15 AM 35.6 °F 29.2 °F 32.0 °F 87% 29.80 in 7.0 mi ENE 8.1 mph - N/A   Clear
6:35 AM 35.6 °F 29.2 °F 32.0 °F 87% 29.80 in 7.0 mi ENE 8.1 mph - N/A   Clear
6:55 AM 35.6 °F 29.9 °F 32.0 °F 87% 29.80 in 7.0 mi ENE 6.9 mph - N/A   Clear
7:15 AM 35.6 °F 29.2 °F 32.0 °F 87% 29.79 in 5.0 mi ENE 8.1 mph - N/A   Clear
7:35 AM 35.6 °F 29.9 °F 32.0 °F 87% 29.80 in 5.0 mi East 6.9 mph - N/A   Clear
7:55 AM 33.8 °F 27.0 °F 33.8 °F 100% 29.80 in 5.0 mi East 8.1 mph - N/A   Clear
8:15 AM 35.6 °F 29.2 °F 33.8 °F 93% 29.80 in 5.0 mi East 8.1 mph - N/A   Clear
8:35 AM 37.4 °F 32.8 °F 33.8 °F 87% 29.80 in 7.0 mi East 5.8 mph - N/A   Clear
8:55 AM 41.0 °F 36.4 °F 35.6 °F 81% 29.80 in 7.0 mi East 6.9 mph - N/A   Clear
9:15 AM 42.8 °F 37.5 °F 35.6 °F 76% 29.81 in 7.0 mi East 9.2 mph - N/A   Clear
9:35 AM 44.6 °F 40.2 °F 37.4 °F 76% 29.81 in 7.0 mi East 8.1 mph - N/A   Clear
9:55 AM 46.4 °F 41.9 °F 37.4 °F 71% 29.82 in 10.0 mi East 9.2 mph - N/A   Clear
10:15 AM 48.2 °F - 37.4 °F 66% 29.82 in 10.0 mi ENE 6.9 mph - N/A   Clear
10:35 AM 51.8 °F - 37.4 °F 58% 29.82 in 10.0 mi East 6.9 mph - N/A   Clear
10:55 AM 55.4 °F - 35.6 °F 47% 29.81 in 10.0 mi SSE 5.8 mph - N/A   Clear
11:15 AM 57.2 °F - 33.8 °F 41% 29.81 in 10.0 mi South 6.9 mph - N/A   Clear
11:35 AM 59.0 °F - 33.8 °F 39% 29.80 in 10.0 mi SSW 6.9 mph - N/A   Clear
11:55 AM 59.0 °F - 35.6 °F 42% 29.80 in 10.0 mi SSE 3.5 mph - N/A   Clear
12:15 PM 59.0 °F - 33.8 °F 39% 29.79 in 10.0 mi Calm Calm - N/A   Clear
12:35 PM 60.8 °F - 33.8 °F 36% 29.79 in 10.0 mi Calm Calm - N/A   Clear
12:55 PM 60.8 °F - 33.8 °F 36% 29.78 in 10.0 mi West 5.8 mph - N/A   Clear
1:15 PM 62.6 °F - 33.8 °F 34% 29.77 in 10.0 mi Calm Calm - N/A   Clear
1:35 PM 62.6 °F - 33.8 °F 34% 29.76 in 10.0 mi Calm Calm - N/A   Clear
1:55 PM 64.4 °F - 33.8 °F 32% 29.76 in 10.0 mi West 3.5 mph - N/A   Clear
2:15 PM 64.4 °F - 33.8 °F 32% 29.76 in 10.0 mi SW 6.9 mph - N/A   Clear
2:35 PM 64.4 °F - 33.8 °F 32% 29.76 in 10.0 mi West 5.8 mph - N/A   Clear
2:55 PM 64.4 °F - 32.0 °F 30% 29.77 in 10.0 mi WSW 6.9 mph - N/A   Clear
3:15 PM 64.4 °F - 33.8 °F 32% 29.77 in 10.0 mi West 4.6 mph - N/A   Clear
3:35 PM 64.4 °F - 32.0 °F 30% 29.77 in 10.0 mi West 5.8 mph - N/A   Clear
3:55 PM 64.4 °F - 32.0 °F 30% 29.77 in 10.0 mi Calm Calm - N/A   Clear
4:15 PM 64.4 °F - 33.8 °F 32% 29.77 in 10.0 mi West 3.5 mph - N/A   Clear
4:35 PM 62.6 °F - 33.8 °F 34% 29.78 in 10.0 mi WNW 3.5 mph - N/A   Clear
4:55 PM 60.8 °F - 33.8 °F 36% 29.77 in 10.0 mi Calm Calm - N/A   Clear
5:15 PM 59.0 °F - 33.8 °F 39% 29.79 in 10.0 mi West 3.5 mph - N/A   Clear
5:35 PM 55.4 °F - 33.8 °F 44% 29.79 in 10.0 mi Calm Calm - N/A   Clear
5:55 PM 53.6 °F - 33.8 °F 47% 29.80 in 10.0 mi Calm Calm - N/A   Clear
6:15 PM 51.8 °F - 33.8 °F 50% 29.80 in 10.0 mi Calm Calm - N/A   Clear
6:35 PM 51.8 °F - 35.6 °F 54% 29.80 in 10.0 mi ESE 3.5 mph - N/A   Clear
6:55 PM 46.4 °F - 35.6 °F 66% 29.81 in 10.0 mi Calm Calm - N/A   Clear
7:15 PM 48.2 °F - 35.6 °F 62% 29.82 in 10.0 mi Calm Calm - N/A   Clear
7:35 PM 46.4 °F - 33.8 °F 62% 29.83 in 10.0 mi Calm Calm - N/A   Clear
7:55 PM 44.6 °F 43.1 °F 35.6 °F 71% 29.82 in 10.0 mi ENE 3.5 mph - N/A   Clear
8:15 PM 42.8 °F 41.1 °F 33.8 °F 70% 29.83 in 10.0 mi ENE 3.5 mph - N/A   Clear
8:35 PM 44.6 °F 43.1 °F 33.8 °F 66% 29.83 in 10.0 mi NE 3.5 mph - N/A   Clear
8:55 PM 42.8 °F 41.1 °F 33.8 °F 70% 29.83 in 10.0 mi NE 3.5 mph - N/A   Clear
9:15 PM 44.6 °F 42.2 °F 33.8 °F 66% 29.83 in 10.0 mi NE 4.6 mph - N/A   Clear
9:35 PM 44.6 °F 42.2 °F 33.8 °F 66% 29.83 in 10.0 mi NE 4.6 mph - N/A   Clear
9:55 PM 42.8 °F 40.1 °F 33.8 °F 70% 29.83 in 10.0 mi NE 4.6 mph - N/A   Clear
10:15 PM 41.0 °F 39.0 °F 33.8 °F 76% 29.83 in 10.0 mi NE 3.5 mph - N/A   Clear
10:55 PM 42.8 °F 40.1 °F 33.8 °F 70% 29.82 in 10.0 mi NE 4.6 mph - N/A   Clear
11:15 PM 42.8 °F 40.1 °F 33.8 °F 70% 29.83 in 10.0 mi East 4.6 mph - N/A   Clear
11:35 PM 39.2 °F 35.9 °F 33.8 °F 81% 29.82 in 10.0 mi ENE 4.6 mph - N/A   Clear
11:55 PM 42.8 °F 39.3 °F 33.8 °F 70% 29.82 in 10.0 mi ENE 5.8 mph - N/A   Clear